Regional Weather Roundup
Issued by NWS

Home | Current Version | Previous Version | Text Only | Print | Product List | Glossary On
Versions: 1 2 3 4 5 6 7 8 9 10 11 12 13 14 15 16 17 18 19 20 21 22 23 24 25 26 27 28 29 30 31 32 33 34 35 36 37 38 39 40 41 42 43 44 45 46 47 48 49 50
000
ASUS43 KLMK 300802
RWRKY
KENTUCKY REGIONAL WEATHER ROUNDUP
NATIONAL WEATHER SERVICE LOUISVILLE KY
400 AM EDT MON MAR 30 2015

NOTE "FAIR" INDICATES FEW OR NO CLOUDS BELOW 12,000 FEET
WITH NO SIGNIFICANT WEATHER AND/OR OBSTRUCTIONS TO VISIBILITY.

KYZ001>023-026-027-061>063-070>075-300900-
WESTERN AND SOUTH CENTRAL KENTUCKY

CITY           SKY/WX    TMP DP  RH WIND       PRES   REMARKS
PADUCAH        CLEAR     51  43  74 NW8       30.06S
HENDERSON      CLEAR     48  41  76 NW9       30.05S
OWENSBORO      CLEAR     49  44  83 NW7       30.04S
HOPKINSVILLE   NOT AVBL
BOWLING GREEN  CLEAR     49  44  83 W3        30.05S
GLASGOW        NOT AVBL
$$

KYZ024-025-028>034-038-045-046-053-300900-
NORTH CENTRAL KENTUCKY

CITY           SKY/WX    TMP DP  RH WIND       PRES   REMARKS
LOUISVILLE/SDF PTCLDY    52  42  69 NW13      30.01F
LOUISVILLE/LOU CLEAR     51  42  71 NW10      30.01F
FORT KNOX      NOT AVBL
$$

KYZ035>037-039>044-047>052-055>060-089>105-300900-
NORTHEAST KENTUCKY

CITY           SKY/WX    TMP DP  RH WIND       PRES   REMARKS
LEXINGTON      CLOUDY    47  42  83 SW7       29.99F
COVINGTON      MOCLDY    48  41  76 NW18      29.97S
FRANKFORT      CLOUDY    49  42  77 W6        29.98F
$$

KYZ054-064>069-076>088-106>120-300900-
SOUTHEAST KENTUCKY

CITY           SKY/WX    TMP DP  RH WIND       PRES   REMARKS
JACKSON        LGT RAIN  45  41  86 SW8       30.01F
LONDON         RAIN      47  40  76 SW3       30.05F
SOMERSET       DRIZZLE   45  43  93 SW3       30.06F
MIDDLESBORO    LGT RAIN  46  45  95 CALM      30.05S
MONTICELLO     CLOUDY    48  45  90 SW8       30.08F
$$




USA.gov is the U.S. government's official web portal to all federal, state and local government web resources and services.